Louisville Bowman, KY

8:07 AM EST on December 13, 2019 (GMT -0500)
Bowman

Weather History for KLOU - November, 2019

Change the Weather History Date:

Saturday, November 16, 2019

  Actual Average Record
Temperature  
Mean Temperature 40 °F 47 °F  
Max Temperature 50 °F 56 °F 77 °F (1952)
Min Temperature 29 °F 38 °F 24 °F (1967)
Degree Days  
Heating Degree Days 26 18  
Month to date heating degree days 406 235  
Since 1 July heating degree days 611 511  
Cooling Degree Days 0 0  
Month to date cooling degree days 0 0  
Year to date cooling degree days 1794 1442  
Moisture  
Dew Point 26 °F    
Average Humidity 66    
Maximum Humidity 82    
Minimum Humidity 42    
Precipitation  
Precipitation 0.00 in 0.12 in 1.26 in (1977)
Month to date precipitation 0.92 1.88  
Year to date precipitation 49.40 39.80  
Sea Level Pressure  
Sea Level Pressure 30.30 in    
Wind  
Wind Speed 5 mph ()    
Max Wind Speed 13 mph    
Max Gust Speed 23 mph    
Visibility 7.8 miles    
Events      
T = Trace of Precipitation, MM = Missing Value Source: Averaged Metar Reports

Daily Weather History Graph

Daily Weather History Graph

Search for Another Location

Airport or City:

Astronomy

Nov. 16, 2019 Rise Set
Actual Time 7:24 AM EST 5:29 PM EST
Civil Twilight 6:56 AM EST 5:57 PM EST
Nautical Twilight 6:24 AM EST 6:29 PM EST
Astronomical Twilight 5:53 AM EST 7:01 PM EST
Moon 9:03 PM EST (11/16) 11:16 AM EST (11/16)
Length of Visible Light 11h 01m
Length of Day
10h 05m
Waning Gibbous, 82% of the Moon is Illuminated
Nov 16
Waning Gibbous
Nov 19
Last Quarter
Nov 26
New
Dec 4
First Quarter
Dec 12
Full

Hourly Weather History & Observations

Time (EST) Temp. Windchill Dew Point Humidity Pressure Visibility Wind Dir Wind Speed Gust Speed Precip Events Conditions
12:53 AM 32.0 °F 26.4 °F 26.1 °F 79% 30.34 in 8.0 mi NNE 5.8 mph - N/A   Clear
1:53 AM 32.0 °F 25.6 °F 25.0 °F 75% 30.33 in 9.0 mi North 6.9 mph - N/A   Clear
2:53 AM 32.0 °F 25.6 °F 25.0 °F 75% 30.33 in 8.0 mi NNE 6.9 mph - N/A   Clear
3:53 AM 32.0 °F 24.8 °F 25.0 °F 75% 30.33 in 6.0 mi NNE 8.1 mph - N/A   Haze
4:53 AM 30.9 °F 25.2 °F 25.0 °F 79% 30.34 in 6.0 mi NNE 5.8 mph - N/A   Haze
5:49 AM 30.2 °F - 24.8 °F 80% 30.34 in 5.0 mi North - - N/A   Haze
5:53 AM 30.0 °F 22.4 °F 25.0 °F 82% 30.35 in 5.0 mi NE 8.1 mph - N/A   Haze
6:19 AM 30.0 °F 24.1 °F 24.1 °F 79% 30.34 in 5.0 mi NNE 5.8 mph - N/A   Haze
6:53 AM 30.0 °F 26.5 °F 24.1 °F 79% 30.36 in 5.0 mi NNW 3.5 mph - N/A   Haze
7:53 AM 30.0 °F 26.5 °F 25.0 °F 82% 30.38 in 3.0 mi North 3.5 mph - N/A   Haze
8:53 AM 34.0 °F 28.0 °F 27.0 °F 75% 30.38 in 5.0 mi NNE 6.9 mph - N/A   Haze
9:53 AM 37.0 °F 30.4 °F 28.0 °F 70% 30.38 in 6.0 mi NE 9.2 mph - N/A   Haze
10:53 AM 41.0 °F 35.8 °F 28.0 °F 60% 30.37 in 7.0 mi East 8.1 mph - N/A   Clear
11:53 AM 43.0 °F 39.5 °F 28.0 °F 56% 30.34 in 7.0 mi East 5.8 mph - N/A   Clear
12:53 PM 44.1 °F 42.5 °F 28.0 °F 53% 30.30 in 9.0 mi East 3.5 mph 23.0 mph N/A   Clear
1:53 PM 48.0 °F - 28.9 °F 48% 30.26 in 10.0 mi Variable 6.9 mph - N/A   Clear
2:53 PM 48.0 °F - 28.0 °F 46% 30.24 in 10.0 mi ENE 8.1 mph - N/A   Clear
3:53 PM 48.9 °F - 27.0 °F 43% 30.23 in 10.0 mi North 8.1 mph - N/A   Clear
4:53 PM 46.9 °F - 26.1 °F 44% 30.22 in 10.0 mi North 8.1 mph - N/A   Clear
5:53 PM 43.0 °F 39.5 °F 26.1 °F 51% 30.23 in 10.0 mi NNE 5.8 mph - N/A   Clear
6:53 PM 42.1 °F 39.2 °F 26.1 °F 53% 30.23 in 10.0 mi NNE 4.6 mph - N/A   Clear
7:53 PM 39.9 °F 35.8 °F 26.1 °F 58% 30.23 in 10.0 mi NE 5.8 mph - N/A   Clear
8:53 PM 39.0 °F 34.8 °F 26.1 °F 60% 30.22 in 10.0 mi NNE 5.8 mph - N/A   Clear
9:53 PM 37.0 °F 33.3 °F 26.1 °F 65% 30.22 in 10.0 mi NNE 4.6 mph - N/A   Clear
10:53 PM 35.1 °F 32.2 °F 26.1 °F 70% 30.20 in 10.0 mi NNE 3.5 mph - N/A   Clear
11:53 PM 30.9 °F - 25.0 °F 79% 30.18 in 8.0 mi Calm Calm - N/A   Clear